Date String (YYYY-MM-DD hh:mm:ss) UTC,Instrument flags,absolute air pressure of the measurement (hPa),sample flow rate (lpm),inlet stack bypass flow (lpm),air temperature of the measurement (°C),ambient temperature measured by the external sensor (°C),aerosol sample conditioner tube jacket temperature (°C),OPC LED temperature (°C),internal box temperature (°C),relative humidity of the measurement (%),span deviation,mass concentration of particles derived from Lorenz-Mie calculation of OPC scattering (μg/m³),mass concentration of particles derived from Lorenz-Mie calculation of OPC scattering (μg/m³),mass concentration of particles derived from Lorenz-Mie calculation of OPC scattering (μg/m³)
DateTimeUTC,F1_M11,P_M11,Q1_M11,Q2_M11,T1_M11,T2_M11,T3_M11,T4_M11,T5_M11,U1_M11,ZSPAN_M11,X2_M11,X0_M11,X1_M11
2024-03-25 04:00:00,SystemResetWarning,0815.2,5.00,000.00,018.6,017.7,000.0,027.4,020.4,18.5,0000.0,0003.98,0006.68,0003.78
2024-03-25 04:01:00,SystemResetWarning,0815.2,4.99,000.00,018.6,017.7,000.0,027.3,020.4,18.4,0000.0,0004.00,0006.73,0003.79
2024-03-25 04:02:00,SystemResetWarning,0815.2,5.00,000.00,018.6,017.7,000.0,027.3,020.4,18.4,0000.0,0004.01,0006.79,0003.80
2024-03-25 04:03:00,SystemResetWarning,0815.3,5.00,000.00,018.6,017.7,000.0,027.3,020.4,18.4,0000.0,0004.00,0006.77,0003.80
2024-03-25 04:04:00,SystemResetWarning,0815.2,5.00,000.00,018.6,017.7,000.0,027.3,020.4,18.4,0000.0,0004.00,0006.84,0003.80
2024-03-25 04:05:00,SystemResetWarning,0815.3,5.00,000.00,018.5,017.6,000.0,027.3,020.3,18.4,0000.0,0004.00,0006.87,0003.80
2024-03-25 04:06:00,SystemResetWarning,0815.3,5.00,000.00,018.5,017.6,000.0,027.3,020.4,18.4,0000.0,0004.01,0006.80,0003.80
2024-03-25 04:07:00,SystemResetWarning,0815.3,5.00,000.00,018.5,017.6,000.0,027.3,020.4,18.5,0000.0,0004.04,0006.11,0003.82
2024-03-25 04:08:00,SystemResetWarning,0815.3,5.00,000.00,018.5,017.6,000.0,027.3,020.3,18.5,0000.0,0004.06,0006.22,0003.83
2024-03-25 04:09:00,SystemResetWarning,0815.3,5.00,000.00,018.5,017.6,000.0,027.3,020.3,18.5,0000.0,0004.09,0006.29,0003.85
2024-03-25 04:10:00,SystemResetWarning,0815.4,5.00,000.00,018.5,017.6,000.0,027.3,020.3,18.5,0000.0,0004.08,0006.18,0003.85
2024-03-25 04:11:00,SystemResetWarning,0815.3,5.00,000.00,018.5,017.6,000.0,027.3,020.3,18.5,0000.0,0004.06,0006.10,0003.85
2024-03-25 04:12:00,SystemResetWarning,0815.3,5.00,000.00,018.5,017.6,000.0,027.3,020.3,18.5,0000.0,0004.08,0006.19,0003.86
2024-03-25 04:13:00,SystemResetWarning,0815.4,5.00,000.00,018.5,017.6,000.0,027.3,020.3,18.5,0000.0,0004.10,0006.29,0003.87
2024-03-25 04:14:00,SystemResetWarning,0815.4,5.00,000.00,018.5,017.6,000.0,027.2,020.3,18.5,0000.0,0004.11,0006.33,0003.88
2024-03-25 04:15:00,SystemResetWarning,0815.4,5.00,000.00,018.5,017.6,000.0,027.2,020.3,18.5,0000.0,0004.12,0006.18,0003.89
2024-03-25 04:16:00,SystemResetWarning,0815.4,5.00,000.00,018.5,017.6,000.0,027.2,020.3,18.5,0000.0,0004.11,0006.06,0003.89
2024-03-25 04:17:00,SystemResetWarning,0815.4,5.00,000.00,018.5,017.6,000.0,027.2,020.3,18.5,0000.0,0004.10,0006.03,0003.89
2024-03-25 04:18:00,SystemResetWarning,0815.4,5.00,000.00,018.4,017.5,000.0,027.2,020.3,18.5,0000.0,0004.07,0005.90,0003.88
2024-03-25 04:19:00,SystemResetWarning,0815.4,5.00,000.00,018.4,017.5,000.0,027.2,020.2,18.5,0000.0,0004.07,0005.88,0003.88
2024-03-25 04:20:00,SystemResetWarning,0815.4,5.00,000.00,018.4,017.5,000.0,027.2,020.2,18.5,0000.0,0004.08,0005.88,0003.88
2024-03-25 04:21:00,SystemResetWarning,0815.3,5.00,000.00,018.4,017.5,000.0,027.2,020.2,18.5,0000.0,0004.07,0006.03,0003.87
2024-03-25 04:22:00,SystemResetWarning,0815.4,5.00,000.00,018.4,017.4,000.0,027.2,020.2,18.5,0000.0,0004.06,0005.98,0003.87
2024-03-25 04:23:00,SystemResetWarning,0815.3,5.01,000.00,018.4,017.4,000.0,027.2,020.1,18.5,0000.0,0004.03,0005.82,0003.87
2024-03-25 04:24:00,SystemResetWarning,0815.4,5.00,000.00,018.3,017.4,000.0,027.2,020.1,18.5,0000.0,0004.01,0005.69,0003.86
2024-03-25 04:25:00,SystemResetWarning,0815.5,5.01,000.00,018.4,018.0,000.0,027.3,020.4,18.4,0000.0,0004.01,0005.66,0003.85
2024-03-25 04:26:00,SystemResetWarning,0815.5,4.99,000.00,018.6,018.7,000.0,027.3,020.9,18.2,0000.0,0004.00,0005.66,0003.85
2024-03-25 04:27:00,SystemResetWarning,0815.5,4.98,000.00,018.7,018.7,000.0,027.3,020.9,18.0,0000.0,0004.00,0005.68,0003.85
2024-03-25 04:28:00,SystemResetWarning,0815.5,5.00,000.00,018.7,018.6,000.0,027.3,020.8,18.0,0000.0,0004.00,0005.66,0003.85
2024-03-25 04:29:00,SystemResetWarning,0815.5,4.99,000.00,018.7,018.4,000.0,027.3,020.7,18.0,0000.0,0004.00,0005.83,0003.85
2024-03-25 04:30:00,SystemResetWarning,0815.5,5.00,000.00,018.7,018.3,000.0,027.3,020.6,17.9,0000.0,0003.98,0006.04,0003.83
2024-03-25 04:31:00,SystemResetWarning,0815.5,5.00,000.00,018.7,018.1,000.0,027.3,020.6,17.9,0000.0,0003.95,0005.97,0003.82
2024-03-25 04:32:00,SystemResetWarning,0815.5,5.01,000.00,018.7,018.0,000.0,027.3,020.5,17.9,0000.0,0003.95,0005.80,0003.82
2024-03-25 04:33:00,SystemResetWarning,0815.5,5.00,000.00,018.7,017.9,000.0,027.3,020.5,17.9,0000.0,0003.96,0005.80,0003.82
2024-03-25 04:34:00,SystemResetWarning,0815.6,5.00,000.00,018.6,017.8,000.0,027.3,020.4,17.9,0000.0,0003.96,0005.85,0003.81
2024-03-25 04:35:00,SystemResetWarning,0815.6,5.00,000.00,018.6,017.7,000.0,027.3,020.4,17.9,0000.0,0003.96,0005.87,0003.80
2024-03-25 04:36:00,SystemResetWarning,0815.6,5.01,000.00,018.6,017.7,000.0,027.3,020.3,18.0,0000.0,0003.95,0005.83,0003.81
2024-03-25 04:37:00,SystemResetWarning,0815.6,5.01,000.00,018.6,017.6,000.0,027.3,020.3,18.0,0000.0,0003.92,0005.75,0003.79
2024-03-25 04:38:00,SystemResetWarning,0815.6,5.00,000.00,018.6,018.0,000.0,027.4,020.6,17.9,0000.0,0003.90,0005.64,0003.77
2024-03-25 04:39:00,SystemResetWarning,0815.6,5.00,000.00,018.8,018.9,000.0,027.5,021.1,17.7,0000.0,0003.89,0005.62,0003.76
2024-03-25 04:40:00,SystemResetWarning,0815.6,4.99,000.00,019.0,019.5,000.0,027.5,021.5,17.5,0000.0,0003.87,0005.43,0003.75
2024-03-25 04:41:00,SystemResetWarning,0815.6,4.99,000.00,019.1,019.4,000.0,027.5,021.4,17.3,0000.0,0003.85,0005.09,0003.74
2024-03-25 04:42:00,SystemResetWarning,0815.6,4.99,000.00,019.1,019.2,000.0,027.5,021.2,17.3,0000.0,0003.84,0005.09,0003.73
2024-03-25 04:43:00,SystemResetWarning,0815.6,5.01,000.00,019.1,018.9,000.0,027.5,021.1,17.2,0000.0,0003.84,0005.07,0003.72
2024-03-25 04:44:00,SystemResetWarning,0815.6,5.00,000.00,019.1,018.7,000.0,027.5,021.0,17.1,0000.0,0003.83,0005.04,0003.72
2024-03-25 04:45:00,SystemResetWarning,0815.6,5.00,000.00,019.1,018.5,000.0,027.5,020.9,17.2,0000.0,0003.81,0005.01,0003.71
2024-03-25 04:46:00,SystemResetWarning,0815.6,5.00,000.00,019.0,018.3,000.0,027.5,020.8,17.1,0000.0,0003.80,0004.96,0003.70
2024-03-25 04:47:00,SystemResetWarning,0815.6,5.00,000.00,019.0,018.2,000.0,027.5,020.8,17.1,0000.0,0003.78,0004.91,0003.70
2024-03-25 04:48:00,SystemResetWarning,0815.6,5.00,000.00,019.0,018.0,000.0,027.5,020.7,17.1,0000.0,0003.79,0004.93,0003.71
2024-03-25 04:49:00,SystemResetWarning,0815.6,5.00,000.00,018.9,017.9,000.0,027.5,020.7,17.1,0000.0,0003.82,0005.06,0003.72
2024-03-25 04:50:00,SystemResetWarning,0815.6,5.00,000.00,018.9,017.9,000.0,027.5,020.6,17.1,0000.0,0003.83,0005.06,0003.72
2024-03-25 04:51:00,SystemResetWarning,0815.6,5.00,000.00,018.8,017.8,000.0,027.5,020.6,17.1,0000.0,0003.85,0005.09,0003.72
2024-03-25 04:52:00,SystemResetWarning,0815.6,5.00,000.00,018.8,018.0,000.0,027.6,020.7,17.2,0000.0,0003.87,0005.17,0003.73
2024-03-25 04:53:00,SystemResetWarning,0815.6,5.01,000.00,019.0,018.8,000.0,027.7,021.2,17.0,0000.0,0003.87,0005.86,0003.74
2024-03-25 04:54:00,SystemResetWarning,0815.6,4.99,000.00,019.2,019.4,000.0,027.7,021.5,16.8,0000.0,0003.87,0005.99,0003.74
2024-03-25 04:55:00,SystemResetWarning,0815.7,4.99,000.00,019.2,019.3,000.0,027.7,021.4,16.7,0000.0,0003.86,0006.05,0003.74
2024-03-25 04:56:00,SystemResetWarning,0815.6,5.01,000.00,019.2,019.0,000.0,027.7,021.2,16.7,0000.0,0003.88,0006.08,0003.74
2024-03-25 04:57:00,SystemResetWarning,0815.6,5.01,000.00,019.2,018.8,000.0,027.7,021.1,16.7,0000.0,0003.89,0006.10,0003.75
2024-03-25 04:58:00,SystemResetWarning,0815.6,5.00,000.00,019.2,018.6,000.0,027.7,021.0,16.7,0000.0,0003.90,0006.31,0003.76
2024-03-25 04:59:00,SystemResetWarning,0815.6,4.99,000.00,019.1,018.5,000.0,027.7,020.9,16.7,0000.0,0003.92,0006.46,0003.76
